This is the latest recevied weather packets stored in our database for station/object KD2RHT-13. If no packets are shown the sender has not sent any weather packets the latest 10 day(s).
| Time | Temp. | Humidity | Pressure | Rain* | Wind** | Luminosity | Snow |
|---|---|---|---|---|---|---|---|
| 1777844412 | 13.89° C | 51% | 1011.4 hPa | 0 mm | - | 120 W/m² | - |
| 1777844111 | 13.89° C | 50% | 1011.1 hPa | 0 mm | - | 137 W/m² | - |
| 1777843807 | 13.33° C | 50% | 1011.1 hPa | 0 mm | - | 175 W/m² | - |
| 1777843504 | 13.33° C | 53% | 1011.1 hPa | 0 mm | - | 163 W/m² | - |
| 1777843201 | 13.33° C | 52% | 1011.1 hPa | 0 mm | - | 164 W/m² | - |
| 1777842899 | 13.33° C | 53% | 1011.1 hPa | 0 mm | - | 181 W/m² | - |
| 1777842594 | 13.33° C | 53% | 1011.4 hPa | 0 mm | - | 164 W/m² | - |
| 1777842291 | 13.89° C | 52% | 1011.4 hPa | 0 mm | - | 154 W/m² | - |
| 1777841991 | 13.89° C | 54% | 1011.1 hPa | 0 mm | - | 193 W/m² | - |
| 1777841689 | 13.33° C | 51% | 1011.4 hPa | 0 mm | - | 199 W/m² | - |
| 1777841384 | 13.89° C | 50% | 1011.4 hPa | 0 mm | - | 189 W/m² | - |
| 1777841082 | 13.33° C | 55% | 1011.4 hPa | 0 mm | - | 223 W/m² | - |
| 1777840779 | 13.33° C | 51% | 1011.4 hPa | 0 mm | - | 223 W/m² | - |
| 1777840477 | 13.89° C | 50% | 1011.4 hPa | 0 mm | - | 200 W/m² | - |
| 1777840173 | 13.33° C | 49% | 1011.4 hPa | 0 mm | - | 200 W/m² | - |
| 1777839872 | 13.33° C | 51% | 1011.7 hPa | 0 mm | - | 253 W/m² | - |
| 1777839570 | 13.89° C | 50% | 1011.7 hPa | 0 mm | - | 167 W/m² | - |
| 1777839266 | 13.89° C | 47% | 1011.7 hPa | 0 mm | - | 253 W/m² | - |
| 1777838964 | 13.89° C | 48% | 1011.7 hPa | 0 mm | - | 384 W/m² | - |
| 1777838660 | 13.89° C | 48% | 1011.7 hPa | 0 mm | - | 540 W/m² | - |
| 1777838357 | 13.89° C | 48% | 1011.7 hPa | 0 mm | - | 321 W/m² | - |
| 1777838054 | 12.78° C | 49% | 1011.7 hPa | 0 mm | - | 370 W/m² | - |
| 1777837751 | 12.78° C | 46% | 1011.7 hPa | 0 mm | - | 186 W/m² | - |
| 1777837448 | 12.78° C | 45% | 1012.1 hPa | 0 mm | - | 194 W/m² | - |
| 1777837143 | 12.78° C | 48% | 1012.1 hPa | 0 mm | - | 208 W/m² | - |
* Rain latest hour (hover to see other rain measurements)
** Current wind speed in m/s (hover to see current wind gust speed)